Theta_e
332 333 333 332 334 336 337 334 334 335 336 335 335 334 333 333 333 332 330 332 334 333 335 334 333 331 330 330 333 332 333 332 336 334 333 333 336 341 343 343 342 341 338 338 337 337 336 335 334 336 337 334 333 333 332 331 331 331 331 331 330 330 330 329 329 329 330 329 328 328 328 328 328 328 327 327 327 327 327 327 326 326 326 327 327
334 335 334 335 333 333 333 333 332 332 333 332 336 333 332 332 331 331 331 331 334 333 334 334 333 331 332 330 333 332 330 331 332 334 334 333 334 337 343 342 342 341 340 340 337 338 337 335 334 335 338 335 334 333 333 332 332 331 330 329 330 330 330 330 329 329 328 328 328 328 328 328 328 327 327 327 327 326 327 326 326 326 326 326 326
334 333 333 332 331 330 328 330 330 331 332 333 334 334 334 332 330 330 330 330 331 334 334 333 333 331 332 331 330 332 332 334 335 335 336 335 336 336 341 342 342 340 340 340 340 338 337 336 333 337 338 337 336 335 334 334 333 332 331 330 329 329 330 330 329 329 328 327 327 327 328 328 327 327 327 327 326 326 326 326 326 326 326 326 325
332 332 333 331 329 328 329 329 330 332 333 333 333 332 332 333 333 332 331 331 331 333 334 332 332 331 331 330 331 332 332 333 333 335 335 335 335 335 337 338 342 341 341 340 341 340 337 336 334 334 335 338 337 336 335 335 333 332 332 331 330 329 329 329 329 328 328 328 328 328 328 328 328 327 326 326 326 326 326 325 326 325 325 325 325
331 332 334 332 330 330 330 331 332 335 334 334 334 332 331 331 331 331 331 331 330 332 335 333 331 330 332 330 333 333 334 333 332 334 334 335 334 335 336 336 336 338 339 341 340 340 339 337 335 333 333 339 338 337 337 336 336 334 332 331 330 330 330 330 329 329 328 328 328 328 328 327 327 327 326 326 325 325 325 325 325 325 325 325 324
332 331 332 331 332 331 333 333 333 335 333 334 332 332 330 329 329 330 334 333 333 332 331 330 331 331 331 331 330 331 332 332 333 334 334 335 334 334 334 335 334 334 337 341 339 339 339 338 336 335 334 335 337 338 337 336 337 335 333 332 331 330 330 329 328 328 328 328 328 328 327 327 326 326 326 326 325 325 325 325 325 325 324 324 324
334 333 332 332 331 330 332 333 334 334 332 331 332 333 332 330 329 331 328 329 332 332 332 330 331 330 329 330 331 332 331 332 334 334 334 333 333 333 334 334 332 334 334 334 339 338 339 339 337 335 335 334 333 333 332 332 337 337 335 333 332 331 330 330 328 328 328 328 328 328 327 326 325 326 325 326 325 325 325 325 325 324 324 324 324
335 336 333 331 331 331 332 333 335 333 331 330 331 331 330 330 329 330 328 329 332 331 330 329 331 331 330 330 332 332 331 332 333 334 334 333 332 333 332 332 332 333 336 332 332 336 338 338 338 339 336 334 334 334 334 333 332 337 336 335 334 333 332 331 330 329 328 328 328 327 327 327 326 325 326 325 325 325 325 325 325 325 324 323 323
336 335 334 332 332 332 333 333 335 332 331 331 329 331 330 332 328 330 329 327 329 331 330 329 329 329 330 330 330 330 330 331 330 330 333 331 332 332 331 330 335 340 333 333 332 334 337 338 339 337 337 338 335 335 334 334 333 337 338 337 336 335 333 332 331 330 330 329 329 329 328 327 326 326 325 325 324 324 324 324 324 323 323 323 323
336 335 331 333 333 332 331 332 332 331 330 330 329 329 330 330 328 328 329 328 328 328 328 329 330 329 328 329 329 329 330 330 331 333 331 331 331 330 329 330 332 332 333 333 333 333 333 336 337 336 336 336 338 334 334 334 334 337 338 338 337 336 335 335 334 332 331 330 329 329 329 328 327 327 327 325 325 324 324 324 324 324 323 323 323
336 335 332 333 332 330 329 330 330 330 329 328 329 330 330 330 328 328 330 329 328 329 328 328 328 328 328 329 329 328 329 330 331 330 329 331 332 333 332 330 331 331 332 333 333 333 331 329 329 329 332 336 335 336 337 339 335 334 337 338 338 337 337 336 336 333 333 332 331 330 329 329 328 327 327 327 325 325 325 324 324 324 323 323 323
336 336 334 331 330 329 329 330 330 329 328 326 327 329 329 327 327 327 328 330 331 330 329 327 326 325 326 328 329 329 329 329 331 331 330 330 329 329 329 330 331 331 333 334 332 331 329 328 330 331 330 332 333 334 334 335 336 336 337 336 336 336 337 336 335 335 335 334 333 331 330 329 329 328 327 327 326 326 325 324 325 324 323 323 323
335 335 334 337 331 329 329 330 330 328 328 327 327 329 329 329 329 326 327 327 327 328 327 327 324 321 324 325 326 328 331 331 330 329 328 327 328 329 329 328 330 332 332 331 331 330 330 328 328 330 331 331 330 332 332 332 332 336 335 336 335 334 334 334 334 335 335 335 334 333 331 331 330 329 329 328 328 327 326 325 324 324 324 323 323
334 334 334 332 331 331 330 330 329 329 329 329 328 331 329 328 328 326 328 325 325 326 326 324 320 317 319 319 323 324 327 327 329 329 329 328 328 329 329 330 330 331 330 330 331 331 329 327 327 329 330 331 331 330 331 330 332 334 335 336 335 334 334 333 334 333 333 333 335 335 333 332 331 330 329 329 329 328 327 326 325 324 324 323 322
332 333 331 332 331 329 330 330 331 332 329 328 327 327 327 327 326 324 323 324 325 327 325 322 318 319 319 319 317 316 319 321 325 326 327 326 327 328 330 330 330 330 329 328 329 329 329 329 328 330 330 330 330 330 329 331 330 329 330 332 333 334 334 333 334 333 332 333 334 334 334 334 332 331 331 330 330 329 328 327 326 325 325 324 324
330 332 331 331 330 329 330 328 329 330 328 327 328 328 325 325 325 324 323 322 322 323 325 325 322 319 314 312 315 315 313 313 319 323 326 325 325 326 326 328 329 329 328 327 327 327 327 328 330 329 330 330 331 331 328 328 329 326 326 327 329 332 334 335 335 335 334 334 333 334 332 332 334 334 332 332 331 330 329 328 327 326 325 325 324
326 326 327 327 329 328 328 328 327 328 327 326 327 329 328 327 327 324 322 321 320 320 322 324 324 323 317 314 312 310 309 315 318 319 324 323 325 326 329 327 327 326 326 327 327 327 327 328 329 330 330 329 327 325 324 322 322 324 321 325 326 327 332 334 335 336 335 334 333 333 333 333 333 333 333 333 332 332 330 330 329 327 326 326 325
325 327 328 328 325 327 327 327 326 327 327 326 327 328 328 329 328 326 324 323 323 320 318 323 324 324 323 319 316 311 315 318 316 312 320 321 323 327 328 327 326 325 325 325 325 326 329 329 329 327 325 323 322 320 319 318 320 318 318 320 322 322 320 324 335 335 335 334 335 333 331 331 331 333 333 333 333 332 332 331 330 329 328 327 327
324 324 325 325 323 324 324 324 325 324 327 324 324 326 328 329 328 327 324 325 323 319 320 320 321 322 325 323 325 324 322 317 311 315 312 318 323 323 324 328 328 326 326 325 325 326 328 328 325 323 320 318 317 316 314 315 317 318 319 319 319 318 317 318 323 334 336 336 335 335 334 334 332 332 331 331 332 331 332 332 331 331 330 329 329
323 325 325 326 325 324 323 322 325 325 325 324 324 325 327 328 326 327 325 325 323 321 320 321 319 318 322 320 322 324 323 321 319 316 315 313 316 322 324 324 324 324 325 325 325 325 325 325 323 322 320 319 317 315 313 313 312 313 314 316 316 316 314 315 316 317 327 335 336 336 335 335 334 333 331 330 328 328 329 330 330 331 330 330 331
324 324 322 323 325 322 320 321 323 324 326 325 325 326 326 325 325 325 325 325 324 323 321 319 319 319 319 318 320 321 321 322 321 319 314 313 313 314 316 321 320 323 325 326 326 325 323 319 318 315 315 313 313 313 313 311 311 312 314 314 314 313 313 312 311 315 318 330 335 337 337 335 334 333 331 328 327 327 328 330 329 330 328 328 329
321 320 320 322 321 320 320 321 322 323 324 324 324 323 323 323 324 325 325 324 323 324 322 321 321 321 321 320 317 317 318 317 318 318 317 315 312 313 315 315 314 317 323 324 325 323 319 315 313 312 311 310 310 309 310 310 311 312 314 314 313 312 310 309 309 311 315 324 331 333 334 335 335 333 332 331 331 330 329 330 330 331 331 331 330
320 321 320 319 320 323 321 322 322 324 324 323 321 322 322 323 325 325 324 324 323 323 323 321 322 321 321 319 318 318 315 313 316 316 314 313 313 313 315 316 316 316 319 323 323 321 316 314 312 310 310 310 310 309 308 309 312 312 314 314 314 312 310 307 307 308 313 321 327 328 329 329 329 329 327 326 325 325 324 324 324 325 326 327 328
318 316 316 317 320 320 321 320 321 319 319 319 319 319 320 322 322 322 322 322 323 323 321 321 320 320 319 319 320 321 319 319 319 319 316 315 314 312 312 315 315 314 319 318 321 317 313 312 311 311 309 308 308 309 309 308 310 311 309 312 311 310 311 310 308 307 307 315 319 323 326 326 325 324 323 322 321 320 320 319 318 317 319 321 323
316 318 318 319 320 319 318 317 316 317 318 317 318 319 319 318 318 318 319 319 318 319 318 318 320 320 319 319 321 323 321 321 322 320 318 316 313 310 311 311 308 310 313 313 312 313 313 312 312 312 311 311 312 310 308 307 306 309 309 309 310 309 309 311 310 308 306 305 309 313 316 319 321 321 320 318 316 315 314 311 309 309 310 314 316
316 316 317 318 319 319 317 317 316 317 317 317 317 316 316 316 316 315 315 315 315 315 314 314 316 318 319 318 318 321 322 323 322 320 318 315 312 309 308 309 309 310 311 309 312 310 310 312 312 311 310 310 310 309 308 308 307 309 308 306 307 308 307 307 308 308 306 304 304 306 308 311 312 312 313 313 313 311 310 309 307 306 306 308 311
316 316 317 318 318 316 316 316 317 316 316 316 317 315 315 315 316 314 314 314 314 315 314 314 315 313 312 311 313 315 320 323 320 320 319 317 316 311 308 305 303 303 303 305 307 308 308 310 312 311 310 309 309 308 308 306 309 309 307 302 303 307 306 306 308 307 305 303 302 303 304 305 307 308 308 308 308 310 310 310 309 306 305 308 310
317 317 316 315 315 316 317 317 317 317 316 314 314 314 313 312 312 312 313 318 314 314 313 314 313 312 312 312 311 311 314 318 320 319 319 320 316 313 309 307 303 300 300 301 303 305 309 306 307 311 311 310 311 309 311 309 307 311 308 301 301 303 305 304 305 306 305 304 303 302 303 303 305 306 308 309 309 309 309 308 308 307 306 308 309
316 315 314 315 315 315 315 313 313 314 314 314 313 312 313 313 312 311 312 313 314 313 312 312 312 311 310 310 310 310 311 313 313 315 317 318 318 316 313 308 306 300 297 298 299 300 304 306 302 305 309 310 310 311 310 308 310 312 306 304 302 301 305 305 303 303 302 302 303 303 303 304 305 308 309 308 308 307 307 307 307 307 306 307 307
318 318 316 315 317 319 313 313 314 316 315 314 314 313 312 310 311 312 313 312 312 313 315 314 312 312 312 312 312 311 312 310 311 311 313 314 314 314 314 313 308 302 299 298 298 301 300 302 303 302 306 309 310 311 310 309 311 314 307 305 302 301 304 304 303 303 302 302 301 300 301 302 304 306 306 307 305 306 305 306 307 306 305 305 305
318 317 314 313 313 314 314 314 314 314 314 313 313 313 313 312 313 313 313 312 312 312 312 314 314 314 312 312 310 310 310 309 309 309 310 313 311 311 311 313 310 306 303 300 297 302 300 300 302 304 304 306 308 307 309 308 311 312 307 305 303 305 306 303 303 303 303 303 301 300 302 303 302 303 304 305 304 304 305 304 305 305 304 303 303
317 316 314 315 314 313 313 314 313 314 314 313 312 313 313 312 311 312 311 311 311 310 312 313 315 313 311 311 311 311 310 309 310 311 308 310 311 310 310 310 308 306 304 300 298 299 304 300 301 302 304 304 303 302 302 304 309 311 307 305 304 307 302 301 304 303 302 302 302 304 308 307 305 304 305 304 304 303 304 303 303 304 303 302 302
317 316 316 315 313 314 313 314 313 313 313 313 315 315 313 312 312 312 311 311 311 311 311 311 312 311 311 310 309 311 310 309 309 309 310 309 309 311 310 308 306 305 304 301 299 299 302 305 303 303 304 302 301 302 302 303 304 306 309 304 303 301 301 299 300 302 302 302 301 302 302 302 301 303 301 299 299 300 300 300 302 301 302 301 300
317 317 316 315 314 314 313 313 314 314 314 314 314 313 313 313 313 314 311 311 311 310 309 309 309 311 308 308 310 310 312 311 310 311 310 308 311 311 309 308 305 305 305 303 300 298 298 304 304 307 305 304 301 302 302 302 303 303 304 304 302 302 302 299 299 299 301 302 301 301 302 301 300 300 300 299 299 300 301 301 301 300 301 299 298
317 317 316 316 316 314 314 314 314 314 315 315 313 313 312 312 313 312 312 309 308 308 309 309 309 309 309 309 310 310 313 309 309 308 310 310 310 311 311 311 309 307 306 304 303 301 300 302 304 304 305 307 303 304 306 307 306 306 303 304 302 304 305 300 298 299 300 301 301 301 301 302 302 301 301 301 300 300 299 299 299 299 299 299 298
317 317 317 317 317 315 315 315 315 315 316 317 315 314 315 315 313 312 311 311 312 310 310 309 310 311 309 309 310 311 310 307 308 310 310 311 309 309 310 310 311 310 310 309 305 302 301 303 303 304 306 306 307 306 308 308 307 306 304 305 305 304 305 304 301 299 300 301 301 301 302 302 302 301 301 301 301 301 301 301 300 300 299 299 299
316 317 316 316 316 316 317 315 315 316 317 317 316 314 315 315 314 315 313 312 313 313 312 310 316 311 310 309 311 311 309 306 309 311 311 310 311 309 309 309 310 312 312 311 309 307 305 304 304 305 305 308 307 305 305 305 305 305 305 305 305 304 304 304 304 304 301 301 301 301 301 301 302 302 301 301 301 301 300 300 300 300 299 299 300
314 316 315 315 316 316 316 315 315 316 316 316 316 316 317 317 315 314 314 314 315 315 314 313 313 313 312 312 312 311 311 310 310 310 311 310 310 309 308 309 310 309 308 308 309 309 307 304 305 305 306 306 305 307 305 305 304 305 305 306 306 307 306 305 304 304 304 300 299 300 300 300 301 302 302 302 301 301 301 301 301 300 300 299 299
314 314 314 314 315 316 316 315 315 316 317 317 317 317 317 318 316 317 317 316 317 318 318 317 317 316 315 315 314 314 313 312 311 311 311 310 310 308 308 308 308 307 307 307 308 307 307 306 307 305 305 307 305 304 306 305 305 304 304 302 302 305 304 304 304 306 304 301 300 301 301 301 302 301 302 302 302 301 302 301 301 301 300 299 298
317 317 315 315 316 316 317 317 317 317 316 315 316 316 317 317 319 319 318 316 316 315 317 317 317 316 315 315 314 313 313 313 312 311 311 310 310 309 308 308 307 307 306 305 306 305 305 305 305 304 306 305 306 304 305 305 304 304 305 302 301 302 303 303 304 304 306 304 303 304 304 303 303 303 302 302 302 302 301 301 302 302 301 299 298
319 317 316 317 318 317 318 319 318 318 318 317 317 316 316 317 319 317 316 316 316 315 315 316 315 316 314 314 316 315 317 315 308 312 314 314 313 311 309 309 307 306 306 305 306 304 305 304 304 304 302 303 302 303 302 301 299 301 303 302 300 301 301 301 302 304 304 302 302 302 303 304 303 303 302 302 302 303 303 303 302 302 301 299 298
318 318 319 319 318 317 317 316 315 317 317 315 309 305 309 314 316 319 316 315 316 315 315 313 312 313 314 315 317 321 314 312 307 301 301 304 309 311 309 309 309 309 307 305 305 305 304 303 303 302 302 302 301 302 301 301 302 302 301 300 298 299 298 298 298 300 303 301 300 299 300 302 302 301 301 301 302 302 302 301 300 300 300 299 298
317 318 318 317 317 317 315 313 313 314 316 315 297 293 294 301 314 316 315 315 314 314 314 313 312 312 312 316 314 314 313 313 305 298 297 297 296 297 298 302 307 307 306 304 304 303 302 303 302 302 299 300 301 301 300 301 301 300 299 297 298 298 297 295 295 298 301 302 299 297 298 301 300 300 300 301 301 302 302 302 301 300 299 299 298
316 316 317 317 316 315 315 313 313 313 313 308 294 294 294 296 305 315 315 315 314 312 313 313 312 313 313 315 313 314 313 312 311 305 300 296 295 295 294 294 294 295 299 304 303 301 300 300 301 301 300 299 300 300 300 298 299 298 298 298 297 296 294 294 294 294 299 301 298 296 297 299 299 300 299 301 302 302 303 301 300 300 300 299 299
314 316 316 316 315 315 315 314 313 313 312 304 297 294 293 294 297 309 317 315 314 312 313 313 314 314 313 313 314 314 316 318 316 309 306 301 296 295 295 294 294 294 293 295 299 303 302 301 301 301 301 300 299 300 300 299 299 297 297 296 295 294 294 294 294 294 298 299 298 295 294 297 297 297 298 300 301 301 302 300 299 300 299 299 299
313 312 312 313 313 313 313 313 314 313 312 309 297 294 294 293 292 300 313 316 314 315 315 314 315 314 314 313 313 313 314 315 313 311 309 304 302 301 300 300 298 295 293 293 293 294 299 302 300 301 303 301 301 300 301 299 297 296 295 295 295 294 293 293 295 296 298 300 296 294 293 295 297 296 294 296 298 298 298 299 298 298 298 299 298
311 310 312 310 311 311 311 311 310 311 314 306 298 295 294 293 292 297 309 312 314 314 314 314 314 314 314 314 313 312 311 307 304 308 311 307 305 305 304 303 301 300 299 299 300 302 302 302 300 303 300 301 300 298 297 298 299 297 297 296 296 295 294 293 293 293 295 297 297 296 292 291 291 292 293 294 296 295 295 297 297 298 298 298 298
309 309 309 309 310 309 310 310 309 307 310 298 295 295 294 292 292 303 308 310 311 312 313 312 313 314 314 314 312 312 307 302 299 300 306 308 307 306 305 300 296 293 292 294 292 297 299 299 298 297 296 297 296 295 295 296 296 295 295 293 293 292 291 290 290 291 291 294 295 294 291 290 292 293 292 294 294 293 294 294 296 298 298 298 298
309 310 309 308 310 310 308 308 308 309 311 299 292 293 293 292 295 306 309 311 311 310 310 308 305 304 306 311 313 308 304 299 295 294 300 305 309 308 305 301 298 295 292 292 292 291 292 293 293 292 291 291 291 291 292 294 294 293 290 290 290 290 290 288 289 289 289 291 293 294 291 289 291 290 291 292 292 292 292 293 293 296 296 297 297
309 311 309 308 308 310 309 309 311 311 311 304 292 293 292 292 299 307 309 311 309 308 307 304 303 302 305 311 311 304 301 297 292 294 298 304 306 306 306 301 298 296 293 294 294 292 291 291 291 290 291 291 291 291 292 291 292 295 291 290 289 290 289 289 287 287 289 292 292 293 291 288 290 289 289 290 290 289 293 291 293 294 295 295 295
310 309 311 310 308 307 309 310 312 312 310 307 294 293 292 292 297 304 309 309 305 307 305 302 300 300 299 302 304 301 300 295 292 295 298 302 302 303 305 302 299 296 294 294 294 293 294 294 294 293 294 292 292 290 293 292 291 295 292 291 291 291 289 289 289 288 288 287 291 293 290 288 289 288 288 288 286 288 290 292 292 292 292 293 293
Wind_Speed
5 4 1 0 1 3 4 3 3 3 3 2 2 3 2 3 4 3 3 2 2 2 2 4 4 6 7 4 1 1 6 7 9 8 8 9 7 5 7 7 9 11 10 10 11 10 10 9 8 10 11 10 9 9 9 8 7 7 7 7 8 8 9 9 9 10 10 10 10 9 10 10 10 11 10 11 10 10 11 11 11 12 11 11 11
5 3 4 3 4 3 3 3 3 2 2 2 2 3 2 3 2 2 2 2 2 2 2 4 6 7 8 3 3 6 11 8 8 9 7 5 2 2 1 5 5 9 9 7 10 11 10 9 8 10 11 11 10 9 9 8 7 7 7 7 7 7 7 8 8 9 9 9 10 9 9 9 10 10 10 10 9 10 10 10 10 11 11 11 10
2 4 3 5 4 3 2 1 2 1 2 3 3 3 3 2 1 1 1 1 1 1 3 5 7 8 7 5 2 6 8 6 7 6 7 8 7 7 4 5 6 6 7 6 7 11 10 9 6 11 10 11 11 10 9 7 7 6 6 6 6 5 6 7 8 8 9 9 8 8 8 9 9 9 10 10 10 9 9 9 10 10 11 11 10
1 2 3 3 2 3 2 2 2 1 3 4 4 2 2 1 2 2 1 1 1 2 3 5 8 6 4 2 2 7 5 5 6 5 6 6 6 2 2 4 6 7 6 6 5 10 10 9 7 8 9 10 9 10 9 8 7 6 6 5 5 5 5 6 6 7 7 7 8 8 8 8 9 9 9 9 9 9 8 8 9 10 10 11 10
2 2 3 3 2 1 1 1 2 4 4 4 4 2 2 1 1 2 2 2 2 3 4 6 7 4 4 3 3 6 5 2 3 4 5 5 4 3 4 3 3 6 7 7 6 7 10 10 8 7 7 10 9 9 9 9 8 7 7 6 5 5 4 4 5 6 6 6 6 7 8 8 8 8 8 8 9 8 9 8 9 9 10 10 10
2 2 1 2 3 1 0 1 3 4 4 4 5 3 4 2 1 1 2 3 4 3 4 6 5 4 3 2 4 5 4 3 3 5 5 5 4 4 3 3 3 3 4 7 9 7 9 10 9 9 7 9 9 8 9 8 8 7 7 7 6 5 5 4 4 5 5 5 6 6 7 7 7 7 8 8 8 8 8 9 9 8 9 9 9
5 3 2 2 2 2 2 4 4 5 4 3 5 4 4 3 4 3 3 3 4 4 5 6 6 6 3 3 4 4 4 4 2 4 4 4 3 3 3 3 3 2 4 4 6 8 9 7 9 10 8 8 7 8 6 6 9 9 9 8 8 7 6 5 5 5 5 5 5 5 6 6 6 6 6 7 7 7 7 8 8 8 8 8 8
2 2 2 2 2 2 2 4 5 6 5 4 3 5 4 3 2 2 3 2 3 4 5 6 6 5 3 2 3 3 2 3 2 3 3 4 3 3 4 4 3 3 4 4 4 5 9 8 8 7 7 7 8 8 8 8 8 10 8 9 8 8 7 7 6 6 5 5 5 5 5 5 5 6 6 6 6 6 6 7 7 8 8 8 7
5 4 3 3 2 1 0 2 3 4 5 4 3 4 3 3 1 2 2 2 3 5 4 5 5 5 4 5 3 2 4 4 2 2 4 4 4 3 4 3 3 6 4 4 4 4 7 8 7 6 5 4 6 7 10 12 9 12 11 10 10 8 8 8 7 6 6 6 5 5 5 5 5 4 5 5 5 6 6 6 7 7 7 7 7
3 3 4 3 1 2 2 3 2 3 3 3 3 2 3 4 3 1 2 2 4 5 4 4 5 5 6 5 2 2 3 2 1 2 4 5 4 4 3 2 3 3 5 4 4 4 3 5 6 6 6 5 3 3 6 9 8 11 11 10 10 9 8 9 8 8 7 7 7 5 6 6 5 5 5 5 5 5 5 5 5 5 6 6 6
2 4 3 3 4 3 3 2 2 2 2 1 3 3 3 2 3 1 1 2 4 3 4 4 5 5 6 5 3 2 3 2 0 1 4 5 5 5 4 4 3 3 4 5 5 4 2 1 0 2 2 4 4 3 6 8 4 6 9 9 9 10 10 10 10 9 9 9 8 8 7 7 6 4 5 5 5 4 4 4 4 4 4 5 5
4 4 4 4 3 3 2 2 2 1 1 1 3 3 3 2 3 3 1 3 4 4 4 5 4 6 6 5 4 3 4 3 4 3 2 3 5 5 5 4 4 4 5 5 5 3 2 1 2 0 2 2 3 6 4 6 8 2 1 1 5 7 9 7 6 11 11 11 10 9 8 7 7 6 5 5 5 4 4 3 3 4 4 4 4
4 4 5 4 3 3 3 3 3 2 2 2 2 3 3 3 3 3 3 4 2 1 2 5 6 5 5 6 6 5 4 4 5 4 3 2 4 5 5 5 4 5 4 4 4 3 2 1 1 0 2 1 4 4 4 4 6 5 2 3 2 4 1 3 7 3 10 9 9 9 10 9 9 8 6 5 5 5 5 5 4 4 4 4 4
5 5 4 5 4 3 2 3 3 3 3 2 1 2 3 3 3 2 1 4 2 1 1 2 1 5 6 4 6 4 5 5 5 3 2 4 5 5 4 5 5 4 5 4 4 2 2 1 2 0 1 4 4 3 3 3 5 11 11 11 6 3 6 3 4 2 4 5 6 8 10 10 9 8 7 6 5 5 5 6 6 5 4 4 4
5 5 5 5 5 5 5 4 4 4 4 3 3 3 3 3 3 4 4 3 3 1 0 1 2 4 4 6 4 3 3 4 3 3 4 5 5 4 3 5 5 4 4 4 3 2 1 1 1 1 2 4 4 4 4 5 8 12 12 11 11 9 7 2 4 2 1 5 6 7 5 8 9 10 9 8 7 7 6 6 6 6 4 4 4
5 6 4 5 5 5 4 4 4 3 5 5 4 3 3 3 2 3 5 5 2 0 1 1 1 5 2 2 4 4 5 2 1 3 4 3 4 4 3 4 5 4 3 4 3 3 2 2 4 3 3 4 5 5 5 5 8 9 9 9 9 6 4 1 2 4 6 4 4 4 3 4 8 10 9 9 8 7 6 6 6 7 6 5 5
5 5 4 5 4 4 4 4 4 3 3 4 4 5 4 3 4 3 3 5 4 2 0 1 1 1 4 4 3 1 2 3 3 4 4 3 3 2 3 3 4 3 3 3 3 3 2 3 4 5 5 7 6 5 5 5 5 5 6 9 7 5 3 3 3 4 2 2 3 1 1 2 5 8 9 9 8 7 8 8 7 8 8 7 6
5 5 3 3 4 4 5 5 4 5 5 4 3 3 3 4 5 4 4 4 5 3 2 0 3 1 0 1 2 4 7 6 3 2 3 3 2 3 2 2 3 4 3 4 4 3 3 5 6 7 7 6 6 6 5 5 5 5 4 6 8 7 8 10 8 4 3 1 3 3 3 3 5 4 7 9 9 9 8 7 7 7 8 8 8
5 5 4 4 4 4 3 2 4 5 3 4 4 4 4 3 3 3 4 4 4 4 5 3 2 0 0 1 1 3 7 6 3 5 4 2 4 2 2 2 3 4 3 3 4 4 5 5 6 7 7 6 6 6 5 6 7 7 10 9 9 10 10 11 11 12 10 9 8 5 3 6 8 7 4 2 4 6 8 9 9 9 9 10 9
5 4 4 3 2 3 3 3 3 3 5 5 5 4 3 2 3 3 2 3 4 6 5 5 5 2 0 2 3 5 5 5 7 5 5 6 3 2 2 0 2 3 3 4 4 5 6 5 5 5 5 5 5 5 6 5 5 5 6 9 8 10 9 10 13 13 13 14 13 10 8 6 3 5 4 3 6 6 7 6 7 6 4 7 7
3 3 3 4 4 4 4 5 6 4 5 5 4 3 4 4 3 4 4 3 3 4 5 5 3 4 3 2 4 5 5 4 4 5 4 7 4 3 2 1 2 3 4 3 3 4 5 5 6 6 5 5 5 5 5 5 4 4 5 8 9 10 10 11 13 14 14 14 15 16 15 15 14 10 6 5 2 2 6 5 7 9 4 9 7
7 7 5 4 3 4 4 5 4 4 4 4 4 4 4 4 4 4 3 4 3 5 5 4 3 3 3 4 3 3 4 4 4 6 4 3 8 6 6 6 5 2 3 4 4 5 5 5 6 6 5 5 5 5 4 4 4 4 6 9 10 11 12 11 13 14 14 14 15 15 15 16 16 15 16 15 14 13 12 13 13 13 13 9 5
6 5 5 4 4 4 4 4 4 4 5 5 4 4 3 4 4 4 4 5 4 5 5 4 3 4 4 5 5 5 5 4 7 4 3 4 6 5 4 5 7 7 3 3 4 5 5 5 6 5 5 4 4 5 5 5 6 6 10 11 12 13 13 13 13 13 14 13 14 15 15 15 14 15 15 15 14 13 13 13 12 12 11 9 9
5 6 5 4 5 5 4 5 5 5 4 5 5 5 5 4 4 3 4 3 3 4 3 4 4 4 3 4 5 4 5 6 5 6 7 7 8 8 6 4 4 3 5 3 3 4 5 6 6 6 5 5 4 4 5 5 5 10 7 11 10 11 11 12 13 13 13 12 12 14 14 14 14 14 15 14 14 13 14 14 14 13 12 12 12
5 5 4 4 5 5 5 5 6 5 5 6 5 6 6 5 5 5 5 5 4 4 3 3 3 3 3 2 4 5 5 5 6 7 7 6 6 7 4 3 6 5 4 5 3 3 4 5 6 6 6 5 4 4 4 5 4 7 9 7 9 9 10 11 11 10 10 12 12 12 13 14 14 14 13 13 13 13 12 12 11 10 10 11 12
5 5 6 6 5 5 4 4 4 5 6 6 6 6 6 6 5 6 5 4 5 5 4 3 2 3 3 3 3 4 5 5 5 7 7 7 6 7 7 3 4 7 4 3 5 5 2 3 4 5 5 5 5 5 4 5 4 7 8 6 6 7 9 10 9 9 8 10 10 11 11 11 11 11 11 11 11 10 9 9 9 9 9 9 11
6 5 6 6 5 5 4 4 5 5 6 7 6 6 6 6 5 5 5 4 5 6 7 6 6 5 4 5 5 4 3 5 6 5 5 6 6 6 7 9 4 3 3 3 3 4 6 2 4 5 5 5 5 5 5 4 5 7 6 5 4 6 8 8 9 8 7 8 9 8 9 9 9 8 8 7 7 8 8 8 7 7 8 8 9
5 6 5 6 6 5 4 4 4 5 6 6 6 6 5 6 5 4 4 3 5 6 5 7 6 6 5 4 7 5 4 4 4 5 4 4 4 4 6 9 10 5 4 5 3 3 5 4 2 3 5 5 4 5 5 6 5 7 6 4 4 4 6 6 7 7 8 8 8 7 7 7 6 6 6 6 6 6 6 6 6 6 7 7 8
6 6 6 5 5 5 5 6 6 6 6 6 6 5 5 6 6 5 5 4 5 5 6 7 5 6 5 5 5 5 4 4 4 3 4 4 5 5 5 5 6 9 4 3 3 3 1 3 3 1 4 5 5 4 5 4 5 5 3 3 4 3 5 6 6 7 7 7 7 7 6 5 5 4 5 6 5 5 5 5 5 6 6 7 8
6 5 5 5 5 6 6 5 5 5 6 5 5 5 6 6 5 5 4 4 4 4 4 5 5 4 5 6 5 6 4 5 4 4 4 4 5 4 5 6 6 8 6 7 3 1 3 1 1 3 1 4 5 4 4 5 8 6 4 3 4 4 6 6 6 6 6 7 7 7 7 5 4 3 2 3 2 3 2 2 3 4 6 7 7
6 5 6 6 5 4 4 4 5 6 5 5 5 6 5 6 4 5 4 4 4 4 4 5 4 5 4 5 4 4 3 4 4 5 4 4 6 5 3 4 6 7 8 6 6 0 3 3 1 3 5 4 5 4 4 5 8 7 5 4 4 6 7 5 6 5 5 5 6 7 7 6 4 3 1 1 0 0 1 1 2 3 3 4 3
5 5 6 5 4 5 4 5 5 5 6 6 6 5 6 6 6 6 4 4 4 4 4 4 4 4 5 5 5 4 4 5 6 6 3 4 4 6 6 7 7 6 7 6 6 4 0 3 4 5 7 5 5 6 5 4 7 12 5 4 4 6 3 3 5 5 5 4 5 5 6 6 5 3 3 2 2 2 1 1 0 1 2 2 2
5 5 4 5 5 4 4 4 4 4 5 5 4 4 5 5 5 5 4 5 4 3 4 4 4 4 5 5 4 4 4 6 4 4 6 5 5 6 5 7 7 6 8 6 6 4 1 1 4 4 4 5 3 4 5 4 5 5 5 4 5 4 3 3 4 5 6 6 6 6 5 6 5 4 3 4 4 4 3 2 2 2 2 2 1
5 5 5 5 4 5 5 4 3 4 4 4 5 5 5 5 5 4 5 5 4 5 5 5 5 4 4 5 5 4 4 5 4 5 5 6 7 7 5 6 6 5 6 5 3 4 3 0 1 2 5 4 4 3 5 6 5 4 5 4 4 3 4 4 4 4 7 7 7 7 7 6 6 6 5 5 5 5 4 4 3 3 3 3 2
4 4 5 5 5 5 5 5 4 4 4 4 4 4 4 4 5 5 5 6 6 5 5 5 5 4 4 4 4 4 3 5 4 4 5 4 5 7 7 6 6 4 3 6 5 3 4 2 2 2 1 1 6 6 5 6 6 6 5 6 6 4 3 5 4 3 7 9 9 8 8 9 7 7 6 6 6 6 6 5 5 5 4 4 4
4 3 5 5 5 5 5 5 5 4 4 5 5 5 4 4 5 5 4 4 4 4 4 4 4 5 4 4 2 2 3 4 4 4 6 6 5 5 5 4 6 6 4 3 4 4 3 5 3 3 2 2 2 2 2 2 2 6 6 5 5 4 4 4 4 4 6 10 10 10 10 9 8 7 7 7 7 7 8 8 7 6 4 4 4
4 3 3 4 4 4 6 6 5 5 5 5 6 5 4 4 5 4 4 3 2 3 4 4 4 5 4 4 3 2 3 4 4 5 6 6 4 5 5 5 5 4 4 5 4 3 5 5 3 3 3 2 1 2 3 4 4 2 4 5 4 5 4 4 3 5 6 10 10 10 10 8 9 10 9 8 8 9 10 10 9 8 6 5 5
5 4 4 4 4 5 5 5 5 6 6 4 4 5 6 5 5 5 5 4 3 4 4 4 3 3 3 2 1 3 3 4 4 4 5 5 4 5 4 5 4 3 4 4 5 4 6 6 7 4 1 2 1 0 5 5 3 4 5 3 2 3 3 3 4 5 2 4 4 5 7 7 9 11 11 10 9 10 11 12 11 9 8 8 7
5 3 4 5 4 5 6 4 3 4 5 5 5 5 4 5 3 5 5 5 5 4 5 6 6 4 4 3 3 3 4 2 5 5 5 5 5 4 4 4 3 4 4 4 4 4 4 3 1 3 4 2 2 3 1 3 3 4 6 2 2 2 1 2 2 1 2 3 6 8 5 5 6 5 8 9 10 10 12 12 11 10 10 10 9
5 4 6 5 5 4 7 7 5 5 4 5 4 3 3 4 6 6 6 5 5 4 4 4 3 4 3 3 3 3 3 2 3 6 6 6 5 5 3 4 4 4 3 3 4 2 2 1 1 2 1 1 1 0 2 3 4 2 1 2 1 0 3 3 0 2 2 2 0 1 4 5 6 8 9 7 9 11 12 10 9 9 10 10 9
1 3 6 5 5 10 7 6 6 5 5 4 4 4 4 4 3 4 3 4 5 4 3 3 3 3 3 3 2 4 1 4 5 5 6 6 6 6 2 4 3 2 1 2 5 4 3 5 5 3 4 5 4 2 3 4 2 3 1 3 1 1 1 3 4 2 3 4 4 5 5 3 5 6 6 6 7 7 7 6 6 6 8 9 10
3 3 5 5 7 9 8 6 5 5 5 3 4 8 7 5 4 5 4 3 4 5 4 3 3 2 3 2 2 6 6 6 6 8 11 11 9 7 4 4 3 3 2 3 5 4 4 6 3 2 5 4 4 4 3 2 1 2 6 4 3 4 2 3 3 1 3 6 6 7 7 5 4 6 6 6 6 4 5 4 4 5 6 8 9
4 4 5 6 5 5 6 6 6 5 5 5 7 8 8 6 3 5 5 4 3 4 4 4 5 5 3 3 4 5 5 6 5 8 10 11 12 12 10 8 5 4 4 5 3 3 3 3 1 3 4 4 3 3 4 3 3 3 1 2 3 4 3 3 2 6 2 7 4 5 7 6 3 5 6 7 6 5 5 5 6 7 7 8 8
3 3 5 5 5 4 3 3 4 4 4 8 11 9 8 6 3 4 4 5 5 5 5 5 5 5 5 5 4 4 4 4 4 5 7 10 11 11 10 10 10 9 6 4 3 3 2 4 4 3 3 3 1 1 1 2 2 4 3 4 3 3 2 1 1 2 5 4 4 4 7 6 3 4 5 6 6 5 4 6 5 4 6 6 7
3 4 4 4 4 4 4 3 3 3 3 8 11 9 7 6 5 5 5 4 6 5 5 5 5 6 5 5 5 4 4 8 6 5 6 6 7 10 9 8 7 8 8 7 5 4 4 5 4 1 1 3 3 1 0 2 2 3 1 3 1 1 1 0 2 2 6 4 4 4 4 5 3 3 4 6 5 4 4 4 4 3 4 6 7
3 4 4 4 4 4 4 4 4 3 3 1 11 9 8 7 5 4 4 4 4 5 6 6 6 6 6 7 6 5 4 4 4 5 5 6 6 5 4 4 4 5 6 5 5 4 2 3 3 2 0 3 4 2 1 1 2 1 2 1 0 1 2 3 3 4 5 5 4 3 3 5 3 1 2 4 4 4 4 6 7 7 9 9 8
4 4 4 4 4 4 4 4 4 4 3 1 8 11 9 8 6 2 2 3 4 4 4 5 6 6 5 6 5 5 3 3 3 5 7 6 6 5 5 4 4 4 3 3 3 3 3 2 4 6 4 4 5 4 3 3 4 3 2 1 1 1 2 2 2 3 5 4 2 1 3 4 2 3 3 4 4 4 4 6 11 15 16 16 15
2 2 3 4 4 4 3 2 2 3 4 3 5 7 9 8 7 4 3 4 4 3 4 4 4 4 4 4 4 4 4 4 2 6 10 8 7 6 6 5 5 3 3 2 2 2 5 6 6 6 5 4 5 4 3 4 3 2 1 2 2 2 2 3 3 3 2 5 3 4 3 3 3 4 4 5 4 6 5 4 8 10 12 12 13
3 3 4 4 5 5 4 3 4 4 5 3 6 8 9 10 6 3 3 4 4 2 3 3 3 2 3 5 5 5 5 4 3 6 10 11 6 7 7 6 5 5 4 1 2 5 9 10 10 9 8 8 7 6 5 6 3 3 3 2 3 0 2 2 3 3 4 3 3 4 2 3 3 3 5 4 4 5 3 4 4 7 10 11 12
4 5 4 3 4 5 4 4 5 5 5 5 8 9 8 9 6 5 4 4 2 3 4 4 4 3 2 11 10 7 6 4 7 10 9 7 5 6 7 7 5 5 3 2 2 2 4 7 7 7 7 7 7 5 4 4 5 3 2 3 2 1 2 1 3 2 5 5 1 3 5 3 3 2 4 4 3 1 4 3 5 7 10 10 11
4 3 4 4 4 3 4 5 8 7 6 5 6 8 8 8 6 3 4 3 3 5 6 4 3 5 5 6 9 8 7 6 8 9 9 7 5 5 8 7 5 4 4 4 4 3 1 2 1 1 0 1 1 1 1 2 4 2 1 0 1 1 1 2 3 3 5 4 3 5 5 5 4 4 3 4 2 4 1 5 5 6 5 5 5
Wind_Direction
132 136 125 92 65 84 99 92 84 57 58 48 91 94 74 66 52 18 16 349 31 349 343 355 40 44 60 72 252 20 23 11 20 33 25 18 11 64 96 115 143 149 154 155 145 139 133 132 134 135 132 125 127 122 120 118 115 114 111 111 109 111 111 108 108 102 97 96 94 93 88 90 89 85 82 81 84 88 84 84 85 82 76 73 73
142 141 153 143 89 70 73 93 104 104 96 85 69 76 78 62 63 42 14 350 24 2 22 21 35 48 47 50 2 33 60 29 33 46 65 92 138 288 100 124 137 154 152 159 143 137 136 137 136 134 138 132 131 131 126 125 122 115 112 112 116 111 110 109 108 106 100 98 99 96 91 89 89 90 88 87 89 88 86 87 82 82 83 76 74
150 125 111 113 111 105 111 125 124 177 139 114 87 82 67 98 129 129 69 33 9 5 31 48 48 48 50 45 60 93 105 126 123 138 150 156 181 183 166 122 93 106 143 148 151 139 139 144 135 132 141 140 138 135 130 128 128 124 123 120 116 115 107 106 104 103 103 102 104 102 99 94 94 95 94 93 92 90 85 84 87 82 79 81 79
107 86 73 111 123 133 134 133 162 160 118 105 91 85 98 124 141 113 129 110 40 33 67 63 67 74 91 69 54 89 105 143 143 151 148 163 168 85 79 115 116 112 115 143 146 131 144 137 132 133 147 146 143 135 139 138 136 137 125 122 120 110 103 99 100 99 104 107 102 103 101 99 96 95 95 95 95 91 88 84 82 84 88 83 85
84 92 115 108 136 113 129 152 128 108 106 114 116 126 123 120 92 118 158 124 121 78 72 75 83 82 81 90 82 90 114 128 131 141 149 157 109 137 167 137 113 97 89 94 114 131 140 143 136 134 130 145 141 145 147 149 151 148 136 133 127 121 113 104 102 103 101 104 103 99 100 100 101 100 97 95 94 93 89 85 83 81 83 86 79
68 70 117 140 113 132 247 146 132 121 130 138 144 150 124 107 171 116 111 113 108 91 85 81 95 91 74 92 66 78 125 126 154 154 161 154 135 144 127 114 103 102 98 97 97 88 140 148 145 135 134 135 148 152 153 156 153 158 148 147 143 140 129 123 114 113 109 109 106 102 100 102 106 107 100 93 97 97 95 93 88 83 88 89 90
153 160 134 101 105 175 173 157 139 136 131 145 142 147 137 150 182 152 139 118 114 87 84 91 93 94 109 99 101 101 105 137 191 164 138 103 103 108 79 98 103 103 86 95 98 93 86 135 145 139 147 147 133 145 153 128 154 165 162 161 155 150 145 138 136 128 127 115 110 108 110 110 110 112 107 105 93 98 105 104 99 95 89 91 94
113 89 107 117 171 208 199 162 145 138 143 154 141 151 153 161 222 146 102 93 100 85 85 94 96 109 117 77 75 77 112 125 126 113 122 124 117 100 88 86 85 103 120 102 95 94 97 92 101 133 150 150 148 156 156 155 161 165 169 171 166 158 154 150 150 145 139 133 128 124 125 117 119 115 119 111 112 100 101 107 111 110 100 97 101
141 150 154 156 197 186 218 114 118 123 136 150 138 156 140 133 85 65 101 95 78 99 89 100 103 104 100 91 81 63 39 54 66 117 115 92 81 75 70 68 88 92 82 88 85 83 91 92 97 108 109 129 158 175 166 164 166 162 171 175 171 165 161 158 164 158 152 146 148 149 139 137 128 130 121 121 122 118 107 105 112 116 114 105 100
114 132 117 147 130 115 96 83 86 101 119 124 140 114 104 122 105 65 79 67 74 95 100 99 109 103 88 83 84 99 105 88 15 114 103 104 93 90 96 74 71 88 84 86 89 84 84 102 124 128 122 133 146 198 174 160 158 157 168 168 171 169 170 171 173 168 163 162 167 161 153 152 157 148 138 133 132 126 118 114 112 112 115 119 109
174 124 124 104 92 97 89 93 95 109 119 105 114 96 87 88 125 98 79 127 103 102 112 112 105 95 95 94 88 64 81 79 170 93 92 108 116 115 110 97 90 80 84 84 95 99 126 184 93 48 61 73 111 77 29 37 120 154 163 166 174 171 183 185 172 177 177 175 175 178 165 164 164 164 147 140 130 135 138 129 131 121 115 123 122
139 124 115 111 115 126 124 102 99 103 118 85 115 121 133 126 105 130 130 68 81 120 121 113 94 89 93 89 83 73 54 75 90 90 79 88 115 120 105 92 89 104 99 101 99 139 145 195 74 227 225 167 102 59 38 37 12 27 359 137 169 182 189 190 189 181 188 186 182 176 175 175 171 170 164 146 138 142 148 155 154 145 142 133 134
135 128 130 134 137 137 140 169 167 137 105 139 147 148 160 148 148 127 127 108 53 41 140 130 116 79 74 76 66 47 71 65 79 88 90 61 59 86 85 86 75 81 93 112 130 147 170 172 162 239 251 92 59 52 38 20 7 359 41 16 340 13 79 40 11 185 202 195 191 181 179 181 177 177 176 169 152 156 158 171 182 171 162 157 153
139 134 125 134 145 156 172 180 156 141 141 170 114 138 158 141 132 134 130 124 125 189 238 103 67 131 128 96 80 72 52 34 39 52 74 76 59 68 77 95 94 89 84 91 112 158 205 151 115 67 351 44 59 57 42 45 27 38 42 46 53 86 60 349 231 201 213 235 230 199 187 184 179 179 178 183 176 178 173 177 183 186 181 176 177
148 139 143 156 158 156 159 162 164 155 141 143 134 118 142 151 144 136 98 65 107 140 341 91 165 114 118 107 130 105 30 44 3 2 26 47 61 62 68 85 93 95 119 129 122 107 36 55 119 49 34 63 66 68 65 57 63 54 47 43 40 37 79 157 210 182 246 226 226 220 206 195 183 184 183 188 194 192 191 189 180 188 191 200 194
135 153 155 158 163 163 159 151 170 148 153 153 152 155 146 139 137 124 132 124 122 336 349 34 109 122 106 156 170 120 121 113 126 9 10 40 51 68 66 77 82 86 90 99 96 82 56 34 63 72 83 81 78 74 69 61 61 60 54 59 52 58 50 323 74 158 197 199 225 247 237 232 208 189 188 192 201 204 206 200 195 179 197 201 207
123 120 117 138 165 171 168 180 160 162 142 155 168 174 172 165 150 145 152 141 145 162 280 81 85 168 151 113 79 92 176 151 117 14 346 9 51 71 90 87 97 102 101 94 85 84 93 75 70 75 68 67 67 65 62 57 48 38 46 52 64 67 51 15 54 94 143 208 239 291 124 248 245 209 194 201 201 203 208 208 201 193 197 204 207
104 93 85 75 80 126 161 143 148 164 174 181 176 127 162 149 164 160 151 153 151 135 119 244 166 182 185 170 162 165 140 163 106 101 348 2 51 50 46 77 112 112 105 101 94 101 93 90 81 81 79 76 74 71 68 60 56 47 42 49 54 50 27 14 19 47 65 98 166 147 200 264 306 226 219 211 206 203 208 212 216 209 206 211 212
101 107 96 92 90 92 94 115 136 135 124 101 111 158 165 159 152 148 179 146 123 132 149 155 60 358 274 347 53 70 127 139 117 129 113 2 20 22 43 102 127 123 111 96 106 101 90 83 83 84 87 87 80 75 71 63 61 63 63 62 55 45 37 38 36 35 50 54 63 80 167 186 192 199 243 358 304 234 213 218 223 219 214 213 221
127 120 119 114 111 65 65 86 118 97 95 91 101 115 122 119 162 158 150 143 139 139 148 153 148 204 29 69 63 60 84 98 135 147 134 128 88 358 335 307 86 85 99 102 101 105 103 93 90 83 84 87 90 85 77 72 59 49 48 49 46 50 44 45 46 42 41 57 62 65 54 46 131 182 216 83 45 354 344 329 353 346 342 312 276
81 99 111 120 90 92 62 72 112 121 108 108 99 102 112 116 101 98 113 105 115 131 127 162 144 153 121 84 75 75 77 82 111 111 137 126 121 142 158 330 63 76 93 102 105 91 92 96 87 84 78 68 68 70 71 73 67 62 61 56 56 50 53 50 49 45 43 56 60 58 62 68 71 72 74 111 168 324 323 324 300 284 206 253 283
85 88 83 73 90 83 76 74 100 119 118 112 105 90 84 85 96 101 97 82 80 114 130 139 139 148 133 132 104 105 83 57 73 105 80 74 141 156 164 148 130 142 132 130 125 112 106 93 90 86 82 82 81 82 78 74 72 71 65 66 66 66 63 59 55 51 49 53 58 57 56 60 67 67 62 60 59 57 49 44 36 33 32 32 352
95 83 84 82 65 56 53 67 88 111 118 110 108 103 88 90 92 93 95 101 97 92 89 96 122 124 119 133 149 155 157 140 148 136 135 131 123 135 141 156 143 137 189 145 127 125 118 113 104 95 90 84 80 81 84 81 75 77 72 69 66 68 68 67 63 59 57 53 61 64 61 58 59 61 61 59 57 55 55 52 49 47 46 36 28
97 103 100 88 85 74 60 55 62 76 99 115 100 92 81 74 69 70 69 69 78 83 90 110 109 104 112 118 131 136 110 127 153 143 140 150 145 149 148 138 120 113 142 139 149 128 122 116 115 109 102 94 83 86 83 85 83 84 75 68 71 75 77 74 70 66 62 59 56 62 64 64 61 60 58 57 57 56 52 51 48 45 44 43 42
122 105 97 99 101 84 74 66 64 69 81 89 89 76 74 70 68 67 70 73 80 89 94 139 142 141 136 114 128 109 124 141 138 140 143 136 138 135 141 141 129 133 149 152 137 126 127 128 124 122 126 121 115 97 95 89 85 81 84 70 71 76 79 83 80 76 72 69 64 61 62 63 63 60 59 59 57 54 54 51 47 43 37 37 37
137 127 126 112 106 119 109 98 91 78 81 87 86 86 81 76 67 65 61 59 66 72 84 86 89 99 102 103 90 126 133 134 137 133 145 136 141 145 143 116 128 141 153 140 137 124 81 97 117 118 110 109 111 113 110 113 110 107 103 99 81 82 88 88 88 84 79 76 70 64 62 62 65 61 57 54 52 51 51 50 47 42 39 37 35
135 141 120 111 114 111 121 115 94 83 83 86 88 84 83 80 80 76 62 50 50 51 46 65 80 91 80 84 87 84 114 128 134 146 144 153 152 162 139 133 128 127 128 115 112 102 130 78 111 109 112 122 124 126 126 123 127 123 111 97 90 87 91 97 99 100 99 94 86 78 72 68 67 68 67 61 52 46 43 40 38 35 36 37 37
132 125 128 127 127 123 115 105 94 89 91 93 90 89 88 90 81 77 64 41 57 47 48 66 67 67 72 73 75 81 99 114 124 144 152 159 148 147 132 141 145 127 103 107 109 114 136 119 38 114 132 135 143 134 140 133 138 142 121 118 115 98 100 99 104 110 111 111 109 103 92 81 76 76 73 70 67 59 48 38 30 29 28 30 35
132 134 135 128 128 122 109 110 110 109 99 100 101 97 92 89 91 86 80 66 73 67 63 69 68 71 66 71 82 77 75 84 77 102 139 143 131 135 145 147 135 130 133 112 146 135 191 133 133 221 147 143 144 147 141 160 166 154 138 138 133 133 133 124 120 118 118 117 116 112 105 92 78 68 67 62 60 57 51 39 30 23 25 27 24
137 141 126 125 122 117 119 117 117 111 116 114 113 108 104 105 107 102 103 88 75 55 63 75 65 63 56 48 49 54 45 59 66 70 70 86 94 114 144 155 140 136 143 133 139 153 162 245 116 144 160 148 154 157 163 183 189 166 153 155 141 148 141 130 126 119 122 121 119 119 118 112 99 81 67 76 78 79 60 49 48 34 24 23 18
125 117 116 119 123 121 113 117 116 121 116 116 119 119 119 116 113 114 107 97 95 88 77 83 75 74 66 54 34 39 27 50 40 50 65 94 114 115 104 120 143 136 135 131 112 317 138 149 147 146 149 172 170 172 180 187 189 178 163 166 161 161 149 139 137 137 133 141 139 136 135 135 136 141 146 230 36 237 143 73 70 62 46 34 18
125 123 121 124 125 123 120 116 118 116 122 131 128 125 118 121 123 116 119 109 110 114 100 92 100 92 80 65 51 50 32 32 13 12 34 90 103 81 86 95 96 108 110 99 110 121 218 155 147 153 156 153 167 162 177 174 178 180 164 165 150 154 141 153 163 164 179 182 192 176 153 150 160 179 195 222 238 251 224 187 149 97 125 112 52
126 122 124 130 130 126 124 127 125 125 132 138 132 129 130 133 133 135 141 131 124 111 94 68 62 74 74 73 61 50 58 54 33 33 34 33 48 65 85 98 100 107 106 108 112 119 38 105 128 146 141 140 172 188 166 177 178 188 153 145 154 170 163 177 181 195 199 206 214 227 202 176 180 196 212 239 250 261 244 220 205 187 175 117 88
131 132 139 141 133 135 136 139 130 130 133 124 122 120 117 116 120 133 124 110 106 109 100 102 92 93 85 74 49 34 40 60 46 48 41 61 76 78 73 90 107 118 123 104 130 126 162 339 79 154 151 174 168 221 172 183 214 197 156 154 186 188 174 179 189 205 211 219 231 236 247 218 202 210 221 240 257 266 271 258 234 220 201 161 146
133 135 148 148 146 148 140 147 142 145 141 118 120 109 110 105 108 120 128 127 130 128 120 124 125 109 85 85 71 55 49 54 42 43 52 61 88 96 101 98 99 95 100 131 128 128 148 197 210 173 164 165 180 210 215 203 194 186 172 178 184 194 180 183 197 213 212 220 231 236 243 253 230 221 223 239 256 270 274 264 258 251 226 187 174
134 128 147 148 145 145 143 148 154 158 136 122 127 132 138 121 112 116 118 126 140 138 142 141 126 115 123 98 91 79 69 70 42 46 47 55 65 81 89 107 114 122 120 112 129 132 159 149 261 182 210 138 250 257 221 225 199 183 192 173 162 188 187 187 200 218 215 215 227 234 242 251 258 247 240 244 255 266 270 267 259 251 246 214 198
173 123 166 145 139 141 144 152 154 149 148 136 136 149 145 143 132 127 133 129 98 102 131 140 133 136 137 149 157 89 96 78 44 67 88 69 60 80 84 85 90 108 106 105 128 139 137 155 201 240 212 212 181 153 195 188 252 318 40 69 125 178 192 208 214 226 223 212 223 241 247 258 276 280 270 260 260 265 268 269 263 252 241 223 209
186 157 163 164 152 160 159 158 156 154 156 139 138 155 159 145 144 142 145 135 113 97 103 102 99 100 95 115 145 120 100 106 112 95 91 99 81 72 80 77 90 91 86 96 102 121 153 172 171 188 282 169 62 257 197 191 136 81 74 59 75 108 128 143 204 211 191 182 219 245 257 261 261 264 269 269 267 269 272 270 265 258 244 228 216
182 164 177 165 180 153 173 118 120 119 114 120 122 109 87 74 114 124 103 83 76 70 68 71 72 64 73 83 81 79 75 132 135 122 115 99 92 83 85 79 63 70 67 61 78 78 108 126 160 176 176 258 143 177 230 100 111 138 139 66 18 318 55 86 11 315 176 220 239 241 244 234 249 264 268 269 268 268 273 278 276 259 246 239 225
181 171 182 173 182 123 85 103 112 118 115 114 117 105 99 108 93 98 120 132 121 117 102 92 106 114 138 153 146 96 119 128 169 144 130 124 121 103 75 78 59 58 46 32 43 44 56 72 136 206 191 178 219 129 63 70 53 15 52 127 132 354 3 337 23 277 301 109 60 346 254 262 278 268 265 279 295 295 297 301 290 263 249 244 236
157 174 171 160 141 102 111 115 131 128 122 127 132 124 101 82 90 110 120 143 133 113 114 135 133 140 153 181 132 154 171 103 76 111 116 124 126 118 81 105 94 111 88 63 71 41 48 63 25 10 40 29 342 326 24 36 95 170 337 49 68 330 313 2 314 3 39 50 11 10 353 7 330 326 325 313 300 301 303 307 302 285 256 243 235
67 61 85 83 105 126 129 133 114 125 129 125 117 113 107 116 119 136 145 168 151 143 155 141 107 132 167 162 165 156 151 124 101 97 100 94 94 106 135 113 121 107 99 84 72 89 82 70 35 68 71 44 29 75 88 27 51 58 50 41 55 312 28 5 305 315 25 43 17 347 323 319 333 317 313 298 286 288 293 310 277 256 255 243 237
63 56 74 88 96 114 127 137 143 142 148 133 127 94 81 69 102 135 151 170 165 163 172 158 164 179 198 178 168 177 168 143 113 112 109 107 105 103 93 92 94 114 117 95 90 96 103 89 70 70 102 92 36 44 96 74 44 74 82 97 70 39 56 37 324 308 335 33 350 339 312 305 331 297 294 287 279 287 298 272 276 280 269 258 243
98 79 89 107 113 120 122 131 154 165 152 152 131 119 111 121 157 151 157 158 163 168 176 174 175 183 194 188 188 184 184 174 138 126 114 114 115 109 105 101 89 71 81 123 134 86 95 102 79 78 111 130 142 75 83 64 69 47 38 73 76 86 59 48 276 276 272 349 339 312 292 292 307 269 284 288 295 294 304 355 3 324 302 287 258
93 94 102 101 117 131 143 153 195 210 202 163 139 127 127 137 190 175 170 174 163 174 183 185 182 190 185 172 186 201 183 173 154 155 135 120 115 120 119 105 96 101 98 86 91 128 146 105 111 84 138 144 106 69 173 150 134 105 70 63 78 103 146 257 261 275 302 320 342 295 274 285 304 310 315 296 315 321 328 353 5 339 305 281 265
109 118 106 113 122 140 160 173 187 220 226 133 125 136 138 147 194 207 186 185 188 183 189 184 185 184 173 170 178 192 206 191 170 158 145 140 136 125 118 113 96 68 69 75 62 64 121 145 146 149 292 132 142 153 23 121 107 134 103 78 341 21 336 287 251 267 280 313 293 297 312 294 310 359 306 287 322 338 341 330 337 334 328 319 289
142 151 153 143 158 158 177 177 173 207 235 247 138 147 151 159 180 189 227 232 198 190 187 185 182 182 169 173 182 179 161 131 138 167 148 145 144 141 130 115 110 111 106 98 100 113 116 119 122 119 116 99 120 135 119 102 124 158 168 175 207 218 248 290 334 297 301 295 321 70 275 278 317 10 308 314 331 345 329 330 345 4 9 2 357
111 134 162 148 162 178 197 183 181 234 254 194 145 149 156 161 163 187 204 218 213 191 188 187 182 172 170 162 161 152 134 120 112 144 148 145 146 138 123 126 119 109 82 7 344 116 119 123 126 131 141 146 146 147 153 137 135 127 71 21 36 40 49 17 312 306 324 299 350 12 317 307 324 16 317 317 345 341 328 354 3 17 13 12 9
184 179 193 181 180 178 191 201 196 235 259 194 176 170 167 168 167 189 197 204 212 183 148 123 97 92 153 167 155 140 129 126 162 126 138 144 146 145 144 147 141 125 114 83 51 83 109 114 123 128 135 140 143 150 155 167 148 141 79 21 312 91 27 342 313 355 294 304 344 13 328 313 332 358 325 316 339 308 338 351 346 4 28 25 15
208 214 196 190 197 184 175 195 200 220 244 212 191 184 177 178 184 194 198 190 186 131 118 105 103 81 73 146 142 136 133 144 157 125 124 127 128 150 152 143 144 138 151 155 110 55 78 100 111 138 150 162 171 174 177 158 136 131 127 228 233 94 346 228 271 284 302 323 300 350 5 284 297 318 333 292 329 313 334 341 0 12 12 6 9
216 218 198 195 227 232 210 194 198 212 238 241 203 193 184 185 198 223 209 152 153 153 136 118 100 104 83 78 113 130 129 143 108 95 93 93 103 127 155 148 144 138 172 170 145 128 146 101 68 99 230 230 215 211 244 160 177 170 115 167 115 104 249 301 319 343 356 318 296 15 4 298 341 301 1 338 328 288 331 21 9 3 359 357 356